ウィーガート-パンスターズ彗星

351P/Wiegert-PanSTARRS (2015)

English version
Home page
Updated on July 5, 2017

---------------------------------------------------------------------

・ プロフィール

符号 351P/2016 P2
発見日 2016年8月8日
発見光度 21.0等
発見者 Pan-STARRS 1 telescope (Haleakala)

・ 写真集

・ 軌道要素

Epoch 2015 Dec. 4.0 TT = JDT 2457360.5
T 2015 Nov. 16.63501 TT                                 MPCW
q   3.1215029            (2000.0)            P               Q
n   0.10569037     Peri.  352.34393     +0.10508832     +0.97089102
a   4.4304288      Node   283.50321     -0.90026995     +0.00093563
e   0.2954400      Incl.   12.78870     -0.42245764     +0.23951985
P   9.33
From 47 observations 1998 Oct. 18-2016 Aug. 30, mean residual 0".5.

・ 光度変化

        m1 = 12.5 + 5 logΔ + 10.0 log r

---------------------------------------------------------------------

軌道要素はM.P.E.C. 2017-K62に掲載されたものです。
光度グラフはComet for Windowsで作成したものです。

---------------------------------------------------------------------

Copyright(C) Seiichi Yoshida (comet@aerith.net). All rights reserved.